This is the latest recevied weather packets stored in our database for station/object IU8UOQ-5. If no packets are shown the sender has not sent any weather packets the latest 10 day(s).
| Time | Temp. | Humidity | Pressure | Rain* | Wind** | Luminosity | Snow |
|---|---|---|---|---|---|---|---|
| 1787773114 | 30.56° C | 67% | 1009 hPa | - | - | - | - |
| 1787771913 | 31.11° C | 72% | 1008.9 hPa | - | - | - | - |
| 1787770712 | 31.11° C | 75% | 1008.9 hPa | - | - | - | - |
| 1787769510 | 30.56° C | 78% | 1008.8 hPa | - | - | - | - |
| 1787768309 | 30.56° C | 79% | 1008.5 hPa | - | - | - | - |
| 1787767108 | 31.11° C | 77% | 1008.3 hPa | - | - | - | - |
| 1787765906 | 31.11° C | 74% | 1008.3 hPa | - | - | - | - |
| 1787764705 | 31.67° C | 68% | 1008.2 hPa | - | - | - | - |
| 1787763504 | 31.67° C | 64% | 1008.1 hPa | - | - | - | - |
| 1787762303 | 32.22° C | 62% | 1008.1 hPa | - | - | - | - |
| 1787761101 | 32.78° C | 59% | 1008.1 hPa | - | - | - | - |
| 1787759900 | 33.33° C | 55% | 1007.9 hPa | - | - | - | - |
| 1787758699 | 33.33° C | 55% | 1007.6 hPa | - | - | - | - |
| 1787757498 | 33.89° C | 57% | 1007.7 hPa | - | - | - | - |
| 1787756297 | 33.33° C | 57% | 1007.6 hPa | - | - | - | - |
| 1787755095 | 33.89° C | 55% | 1007.8 hPa | - | - | - | - |
| 1787753894 | 33.89° C | 56% | 1007.8 hPa | - | - | - | - |
| 1787752692 | 33.89° C | 56% | 1008 hPa | - | - | - | - |
| 1787751491 | 33.89° C | 60% | 1008.1 hPa | - | - | - | - |
| 1787750290 | 33.89° C | 58% | 1008.1 hPa | - | - | - | - |
* Rain since midnight (hover to see other rain measurements)
** Current wind speed in m/s (hover to see current wind gust speed)